Location: Härggis
(46.9540°N, 8.4897°E)
Time: 20:43:11
(UTC+00:00)

ADEOS II - Pass Details

Date: 27 May 2022
Orbit: 799 x 800 km, 98.6° (Epoch: 02 July)

Event Time Altitude Azimuth Distance (km) Brightness Sun altitude
Rises 01:10:35 0° 18° (NNE) 3,318 7.0 -17.6°
Reaches altitude 10° 01:13:01 10° 24° (NNE) 2,383 5.9 -17.4°
Maximum altitude 01:18:07 49° 100° (E) 1,023 2.7 -17.0°
Enters shadow 01:21:44 19° 168° (SSE) 1,837 3.5 -16.7°
